Terminal Aerodrome Forecast
Issued by NWS

Home | Current Version | Previous Version | Text Only | Print | Product List | Glossary On
Versions: 1 2 3 4 5 6 7 8 9 10 11 12 13 14 15 16 17 18 19 20 21 22 23 24 25 26 27 28 29 30 31 32 33 34 35 36 37 38 39 40 41 42 43 44 45 46 47 48
000
FTUS43 KGLD 241734
TAFMCK
TAF
KMCK 241734Z 2418/2518 11006KT P6SM BKN021
     FM242100 13011KT P6SM BKN035
     FM250400 VRB06KT 6SM -TSRA BKN050CB
     FM251200 06006KT P6SM OVC015=

USA.gov is the U.S. government's official web portal to all federal, state and local government web resources and services.